Voltar ao catálogo

METEOR 2-11 DEB

AtivoPO
NORAD 43309·DEBRIS·🇷🇺 Russia

Lançado Jul 5, 1984 de Plesetsk Cosmodrome

Loading…

Próximas Passagens (próximas 24 horas)

TLE

AtualizadoSource: Space-Track

Época: Sep 14, 2026, 10:31 UTC

1 43309U 84072U   26257.43820571  .00000123  00000-0  73080-4 0  9990
2 43309  82.5266 296.1272 0033406  87.2645 273.2347 13.99688029575782

Acompanhe METEOR 2-11 DEB em tempo real com AllMySat

Download on the App Store